Kincheloe, MI

9:59 AM EST on February 06, 2016 (GMT -0500)
Chippewa County International

Weather History for KCIU - December, 2011

Change the Weather History Date:

Thursday, December 8, 2011

  Actual Average Record
Temperature  
Mean Temperature 20 °F -  
Max Temperature 24 °F 29 °F 42 °F (1984)
Min Temperature 17 °F 14 °F -8 °F (1989)
Degree Days  
Heating Degree Days 44    
Moisture  
Dew Point 11 °F    
Average Humidity 63    
Maximum Humidity 80    
Minimum Humidity 39    
Precipitation  
Precipitation 0.00 in - - ()
Sea Level Pressure  
Sea Level Pressure 29.89 in    
Wind  
Wind Speed 10 mph (WSW)    
Max Wind Speed 18 mph    
Max Gust Speed 25 mph    
Visibility 10 miles    
Events      
Averages and records for this station are not official NWS values.
T = Trace of Precipitation, MM = Missing Value Source: NWS Daily Summary

Daily Weather History Graph

Daily Weather History Graph

Search for Another Location

Airport or City:

Trip Planner

Search our weather history database for the weather conditions in past years. The results will help you decide how hot, cold, wet, or windy it might be!

Date:

Astronomy

Dec. 08, 2011 Rise Set
Actual Time 8:07 AM EST 4:51 PM EST
Civil Twilight 7:33 AM EST 5:26 PM EST
Nautical Twilight 6:55 AM EST 6:04 PM EST
Astronomical Twilight 6:18 AM EST 6:40 PM EST
Moon 3:31 PM EST (12/8) 6:17 AM EST (12/8)
Length of Visible Light 9h 53m
Length of Day
8h 44m
Waxing Gibbous, 97% of the Moon is Illuminated
Dec 8
Waxing Gibbous
Dec 10
Full
Dec 17
Last Quarter
Dec 24
New
Jan 1
First Quarter

Hourly Weather History & Observations

Time (EST) Temp. Windchill Dew Point Humidity Pressure Visibility Wind Dir Wind Speed Gust Speed Precip Events Conditions
12:15 AM 23.0 °F 13.1 °F 17.6 °F 80% 29.85 in 10.0 mi WSW 9.2 mph - N/A   Mostly Cloudy
12:35 AM 23.0 °F 13.9 °F 17.6 °F 80% 29.85 in 10.0 mi West 8.1 mph - N/A   Mostly Cloudy
12:55 AM 24.8 °F 14.6 °F 19.4 °F 80% 29.85 in 5.0 mi West 10.4 mph - N/A   Mostly Cloudy
1:15 AM 24.8 °F 14.6 °F 19.4 °F 80% 29.84 in 10.0 mi WSW 10.4 mph - N/A   Mostly Cloudy
1:35 AM 24.8 °F 14.6 °F 17.6 °F 74% 29.84 in 10.0 mi WSW 10.4 mph - N/A   Overcast
2:35 AM 23.0 °F 17.0 °F 17.6 °F 80% 29.84 in 10.0 mi SW 4.6 mph - N/A   Mostly Cloudy
2:55 AM 23.0 °F 17.0 °F 15.8 °F 74% 29.84 in 10.0 mi SW 4.6 mph - N/A   Partly Cloudy
3:15 AM 21.2 °F 14.9 °F 15.8 °F 80% 29.84 in 10.0 mi SW 4.6 mph - N/A   Clear
3:35 AM 21.2 °F 13.6 °F 14.0 °F 74% 29.83 in 10.0 mi SW 5.8 mph - N/A   Clear
3:55 AM 21.2 °F 14.9 °F 12.2 °F 68% 29.83 in 10.0 mi SW 4.6 mph - N/A   Clear
4:15 AM 21.2 °F 12.6 °F 14.0 °F 74% 29.82 in 10.0 mi WSW 6.9 mph - N/A   Mostly Cloudy
4:35 AM 23.0 °F 13.9 °F 15.8 °F 74% 29.82 in 10.0 mi WSW 8.1 mph - N/A   Overcast
4:55 AM 23.0 °F 15.8 °F 15.8 °F 74% 29.82 in 10.0 mi SW 5.8 mph - N/A   Overcast
5:15 AM 24.8 °F 17.9 °F 17.6 °F 74% 29.81 in 10.0 mi SW 5.8 mph - N/A   Overcast
5:35 AM 24.8 °F 16.9 °F 15.8 °F 69% 29.81 in 10.0 mi SW 6.9 mph - N/A   Mostly Cloudy
5:55 AM 24.8 °F 17.9 °F 17.6 °F 74% 29.80 in 10.0 mi SW 5.8 mph - N/A   Clear
6:15 AM 24.8 °F 15.3 °F 15.8 °F 69% 29.80 in 10.0 mi West 9.2 mph - N/A   Mostly Cloudy
6:35 AM 24.8 °F 12.4 °F 17.6 °F 74% 29.81 in 10.0 mi WSW 15.0 mph 20.7 mph N/A   Overcast
6:55 AM 24.8 °F 13.4 °F 15.8 °F 69% 29.81 in 10.0 mi WSW 12.7 mph 19.6 mph N/A   Overcast
7:55 AM 23.0 °F 9.2 °F 15.8 °F 74% 29.83 in 10.0 mi West 17.3 mph 23.0 mph N/A   Overcast
8:15 AM 23.0 °F 10.6 °F 15.8 °F 74% 29.84 in 9.0 mi West 13.8 mph 25.3 mph N/A   Mostly Cloudy
8:35 AM 23.0 °F 10.1 °F 14.0 °F 68% 29.85 in 10.0 mi West 15.0 mph 25.3 mph N/A   Overcast
8:55 AM 21.2 °F 7.3 °F 12.2 °F 68% 29.86 in 10.0 mi West 16.1 mph 24.2 mph N/A   Mostly Cloudy
9:15 AM 21.2 °F 7.3 °F 14.0 °F 74% 29.86 in 10.0 mi West 16.1 mph 25.3 mph N/A   Partly Cloudy
9:35 AM 23.0 °F 9.2 °F 14.0 °F 68% 29.87 in 10.0 mi West 17.3 mph 23.0 mph N/A   Partly Cloudy
9:55 AM 23.0 °F 9.2 °F 14.0 °F 68% 29.88 in 10.0 mi West 17.3 mph 21.9 mph N/A   Partly Cloudy
10:15 AM 24.8 °F 12.4 °F 12.2 °F 59% 29.89 in 10.0 mi WSW 15.0 mph 23.0 mph N/A   Mostly Cloudy
10:35 AM 24.8 °F 11.1 °F 12.2 °F 59% 29.90 in 10.0 mi West 18.4 mph 21.9 mph N/A   Mostly Cloudy
10:55 AM 24.8 °F 11.5 °F 12.2 °F 59% 29.90 in 10.0 mi West 17.3 mph 25.3 mph N/A   Partly Cloudy
7:15 PM 21.2 °F 8.3 °F 1.4 °F 42% 29.98 in 10.0 mi West 13.8 mph - N/A   Clear
7:35 PM 21.2 °F 8.9 °F -0.4 °F 39% 29.99 in 10.0 mi West 12.7 mph - N/A   Clear
7:55 PM 19.4 °F 7.9 °F -0.4 °F 42% 30.00 in 10.0 mi West 10.4 mph 19.6 mph N/A   Clear
8:15 PM 19.4 °F 7.2 °F -0.4 °F 42% 30.00 in 10.0 mi West 11.5 mph 17.3 mph N/A   Clear
8:35 PM 19.4 °F 6.6 °F -0.4 °F 42% 30.00 in 10.0 mi West 12.7 mph 20.7 mph N/A   Clear
8:55 PM 19.4 °F 5.0 °F 1.4 °F 46% 30.00 in 10.0 mi WSW 16.1 mph 20.7 mph N/A   Clear
9:15 PM 19.4 °F 7.9 °F -0.4 °F 42% 30.01 in 10.0 mi WSW 10.4 mph 17.3 mph N/A   Clear
9:35 PM 17.6 °F 4.3 °F 1.4 °F 49% 30.01 in 10.0 mi WSW 12.7 mph 16.1 mph N/A   Clear
9:55 PM 17.6 °F 5.7 °F 1.4 °F 49% 30.01 in 10.0 mi West 10.4 mph 18.4 mph N/A   Clear
10:15 PM 17.6 °F 6.4 °F -0.4 °F 45% 30.02 in 10.0 mi WSW 9.2 mph - N/A   Clear
11:15 PM 17.6 °F 6.4 °F -0.4 °F 45% 30.02 in 10.0 mi WSW 9.2 mph - N/A   Clear
11:35 PM 17.6 °F 7.3 °F -0.4 °F 45% 30.02 in 10.0 mi West 8.1 mph - N/A   Clear
11:55 PM 17.6 °F 8.2 °F -0.4 °F 45% 30.03 in 10.0 mi WSW 6.9 mph - N/A   Clear